{"data":{"norad_id":63064,"epoch":"2026-05-24T17:26:52.069920Z","epoch_age_seconds":88802,"freshness":"FRESH","line1":"1 63064U 25035N   26144.72699155  .00116134  00000+0  89522-3 0  9999","line2":"2 63064  42.9998 276.6396 0001769 286.2332  73.8341 15.70859309 73182","mean_motion":15.70859309,"eccentricity":0.0001769,"inclination_deg":42.9998,"raan_deg":276.6396,"arg_perigee_deg":286.2332,"mean_anomaly_deg":73.8341,"bstar":0.00089522,"rev_number":7318,"period_min":91.669571663722,"perigee_km":355.24852674924,"apogee_km":357.63122004704,"semimajor_km":6734.5768733981,"source":"CELESTRAK","updated_at":"2026-05-25T13:38:19.873757Z"}}